| time (UTC) | temp F | wind direction | speed MPH | gust MPH | rain 1hr in | rain 24hr in | rain mn in | humidity % | barometer mb |
| 20260905095040 | 62 | 274 | 0.0 | 3.0 | 0.00 | 0.06 | 0.06 | 84 | 1025.0 |
| 20260905094547 | 61 | 129 | 0.0 | 2.0 | 0.00 | 0.06 | 0.06 | 85 | 1025.1 |
| 20260905094039 | 61 | 131 | 0.0 | 4.0 | 0.00 | 0.06 | 0.06 | 84 | 1025.2 |
| 20260905093539 | 61 | 131 | 1.0 | 4.0 | 0.00 | 0.06 | 0.06 | 85 | 1025.2 |
| 20260905093039 | 60 | 166 | 0.0 | 3.0 | 0.00 | 0.06 | 0.06 | 88 | 1025.2 |
| 20260905092538 | 60 | 166 | 1.0 | 3.0 | 0.00 | 0.06 | 0.06 | 89 | 1025.2 |
| 20260905092037 | 60 | 288 | 0.0 | 3.0 | 0.00 | 0.06 | 0.06 | 89 | 1025.2 |
| 20260905091550 | 60 | 288 | 0.0 | 4.0 | 0.00 | 0.06 | 0.06 | 88 | 1025.2 |
| 20260905091036 | 60 | 166 | 0.0 | 0.0 | 0.00 | 0.06 | 0.06 | 89 | 1025.3 |
| 20260905090535 | 59 | 166 | 0.0 | 0.0 | 0.00 | 0.06 | 0.06 | 87 | 1025.2 |
| 20260905090034 | 59 | 166 | 0.0 | 0.0 | 0.00 | 0.06 | 0.06 | 84 | 1025.2 |
| 20260905085534 | 59 | 166 | 0.0 | 1.0 | 0.00 | 0.06 | 0.06 | 86 | 1025.1 |
| 20260905085133 | 58 | 166 | 0.0 | 1.0 | 0.00 | 0.06 | 0.06 | 86 | 1025.0 |
| 20260905084537 | 58 | 166 | 0.0 | 2.0 | 0.00 | 0.06 | 0.06 | 86 | 1025.1 |
| 20260905084032 | 58 | 166 | 0.0 | 2.0 | 0.00 | 0.06 | 0.06 | 86 | 1025.0 |
| 20260905083533 | 58 | 166 | 0.0 | 0.0 | 0.00 | 0.06 | 0.06 | 87 | 1024.9 |
| 20260905083038 | 58 | 166 | 0.0 | 0.0 | 0.00 | 0.06 | 0.06 | 88 | 1024.9 |
| 20260905082532 | 58 | 166 | 0.0 | 0.0 | 0.00 | 0.06 | 0.06 | 88 | 1025.0 |
| 20260905082031 | 57 | 166 | 0.0 | 0.0 | 0.00 | 0.06 | 0.06 | 90 | 1025.0 |
| 20260905081531 | 57 | 166 | 0.0 | 3.0 | 0.01 | 0.06 | 0.06 | 90 | 1024.9 |
| 20260905081030 | 57 | 166 | 0.0 | 3.0 | 0.02 | 0.06 | 0.06 | 91 | 1024.8 |
| 20260905080532 | 57 | 166 | 0.0 | 0.0 | 0.03 | 0.06 | 0.06 | 90 | 1024.9 |
| 20260905080028 | 57 | 166 | 0.0 | 0.0 | 0.06 | 0.06 | 0.06 | 90 | 1024.8 |
| 20260905075528 | 57 | 167 | 0.0 | 2.0 | 0.06 | 0.06 | 0.06 | 91 | 1024.7 |
| 20260905075027 | 57 | 167 | 0.0 | 4.0 | 0.06 | 0.06 | 0.06 | 90 | 1024.7 |
| 20260905074528 | 57 | 167 | 0.0 | 4.0 | 0.06 | 0.06 | 0.06 | 91 | 1024.7 |
| 20260905074026 | 57 | 149 | 0.0 | 6.0 | 0.06 | 0.06 | 0.06 | 90 | 1024.7 |
| 20260905073525 | 57 | 157 | 0.0 | 4.0 | 0.06 | 0.06 | 0.06 | 90 | 1024.7 |
| 20260905073024 | 57 | 120 | 0.0 | 4.0 | 0.06 | 0.06 | 0.06 | 88 | 1024.5 |
| 20260905072523 | 57 | 278 | 0.0 | 0.0 | 0.06 | 0.06 | 0.06 | 87 | 1024.6 |
| 20260905072020 | 58 | 278 | 0.0 | 4.0 | 0.06 | 0.06 | 0.06 | 82 | 1024.6 |
| 20260905071520 | 58 | 278 | 1.0 | 5.0 | 0.05 | 0.05 | 0.05 | 82 | 1024.5 |
| 20260905071020 | 58 | 277 | 2.0 | 9.0 | 0.04 | 0.04 | 0.04 | 82 | 1024.5 |
| 20260905070516 | 59 | 289 | 4.0 | 13.0 | 0.02 | 0.02 | 0.02 | 78 | 1024.2 |
| 20260905070015 | 60 | 278 | 6.0 | 14.0 | 0.00 | 0.00 | 0.00 | 75 | 1024.2 |
| 20260905065513 | 60 | 314 | 6.0 | 15.0 | 0.00 | 0.00 | 0.00 | 73 | 1024.1 |
| 20260905065012 | 61 | 287 | 8.0 | 18.0 | 0.00 | 0.00 | 0.00 | 71 | 1024.0 |
| 20260905064512 | 61 | 288 | 10.0 | 18.0 | 0.00 | 0.00 | 0.00 | 70 | 1023.7 |
| 20260905064015 | 61 | 272 | 7.0 | 17.0 | 0.00 | 0.00 | 0.00 | 70 | 1023.6 |
| 20260905063509 | 61 | 285 | 8.0 | 19.0 | 0.00 | 0.00 | 0.00 | 69 | 1023.4 |
| 20260905063009 | 61 | 297 | 10.0 | 19.0 | 0.00 | 0.00 | 0.00 | 69 | 1023.2 |
| 20260905062508 | 61 | 285 | 5.0 | 17.0 | 0.00 | 0.00 | 0.00 | 69 | 1023.3 |
| 20260905062006 | 62 | 289 | 10.0 | 22.0 | 0.00 | 0.00 | 0.00 | 67 | 1023.3 |
| 20260905061505 | 62 | 231 | 12.0 | 23.0 | 0.00 | 0.00 | 0.00 | 65 | 1023.2 |
| 20260905061005 | 62 | 227 | 14.0 | 23.0 | 0.00 | 0.00 | 0.00 | 64 | 1023.3 |
| 20260905060504 | 62 | 324 | 13.0 | 22.0 | 0.00 | 0.00 | 0.00 | 64 | 1023.3 |
| 20260905060004 | 62 | 292 | 14.0 | 25.0 | 0.00 | 0.00 | 0.00 | 64 | 1023.3 |
| 20260905055502 | 62 | 291 | 11.0 | 25.0 | 0.00 | 0.00 | 0.00 | 65 | 1023.0 |
| 20260905055001 | 63 | 295 | 11.0 | 18.0 | 0.00 | 0.00 | 0.00 | 66 | 1022.9 |
| 20260905054503 | 63 | 314 | 9.0 | 18.0 | 0.00 | 0.00 | 0.00 | 65 | 1022.6 |
| 20260905054100 | 63 | 291 | 11.0 | 22.0 | 0.00 | 0.00 | 0.00 | 65 | 1022.7 |
| 20260905053559 | 63 | 245 | 12.0 | 22.0 | 0.00 | 0.00 | 0.00 | 65 | 1022.8 |
| 20260905053058 | 64 | 271 | 10.0 | 18.0 | 0.00 | 0.00 | 0.00 | 66 | 1022.5 |
| 20260905052556 | 64 | 269 | 10.0 | 22.0 | 0.00 | 0.00 | 0.00 | 66 | 1022.3 |
| 20260905052055 | 64 | 278 | 14.0 | 24.0 | 0.00 | 0.00 | 0.00 | 67 | 1022.2 |
| 20260905051554 | 65 | 286 | 14.0 | 28.0 | 0.00 | 0.00 | 0.00 | 68 | 1022.1 |
| 20260905051052 | 65 | 309 | 12.0 | 28.0 | 0.00 | 0.00 | 0.00 | 68 | 1022.1 |
| 20260905050551 | 65 | 304 | 12.0 | 24.0 | 0.00 | 0.00 | 0.00 | 68 | 1021.9 |
| 20260905050051 | 66 | 293 | 11.0 | 21.0 | 0.00 | 0.00 | 0.00 | 69 | 1021.7 |
| 20260905045549 | 67 | 279 | 12.0 | 21.0 | 0.00 | 0.00 | 0.00 | 69 | 1021.5 |
| 20260905045048 | 67 | 262 | 13.0 | 21.0 | 0.00 | 0.00 | 0.00 | 69 | 1021.1 |
| 20260905044555 | 68 | 281 | 12.0 | 20.0 | 0.00 | 0.00 | 0.00 | 70 | 1021.0 |
| 20260905044045 | 67 | 289 | 12.0 | 20.0 | 0.00 | 0.00 | 0.00 | 71 | 1021.0 |
| 20260905043545 | 66 | 309 | 5.0 | 10.0 | 0.00 | 0.00 | 0.00 | 71 | 1021.0 |
| 20260905043044 | 65 | 278 | 1.0 | 8.0 | 0.00 | 0.00 | 0.00 | 74 | 1020.9 |
| 20260905042544 | 64 | 272 | 3.0 | 6.0 | 0.00 | 0.00 | 0.00 | 75 | 1020.9 |
| 20260905042043 | 63 | 285 | 2.0 | 6.0 | 0.00 | 0.00 | 0.00 | 76 | 1020.9 |
| 20260905041543 | 63 | 345 | 0.0 | 6.0 | 0.00 | 0.00 | 0.00 | 77 | 1020.8 |
| 20260905041042 | 63 | 309 | 3.0 | 5.0 | 0.00 | 0.00 | 0.00 | 76 | 1020.6 |
| 20260905040546 | 63 | 323 | 1.0 | 5.0 | 0.00 | 0.00 | 0.00 | 77 | 1020.5 |
| 20260905040042 | 63 | 245 | 2.0 | 6.0 | 0.00 | 0.00 | 0.00 | 76 | 1020.5 |
| 20260905035541 | 64 | 255 | 1.0 | 9.0 | 0.00 | 0.00 | 0.00 | 75 | 1020.4 |
| 20260905035041 | 65 | 304 | 0.0 | 12.0 | 0.00 | 0.00 | 0.00 | 74 | 1020.3 |
| 20260905034542 | 64 | 288 | 5.0 | 12.0 | 0.00 | 0.00 | 0.00 | 71 | 1020.3 |
| 20260905034041 | 64 | 279 | 4.0 | 10.0 | 0.00 | 0.00 | 0.00 | 73 | 1020.4 |
| 20260905033540 | 64 | 270 | 2.0 | 5.0 | 0.00 | 0.00 | 0.00 | 73 | 1020.3 |
| 20260905033041 | 64 | 283 | 3.0 | 5.0 | 0.00 | 0.00 | 0.00 | 73 | 1020.2 |
| 20260905032540 | 63 | 245 | 0.0 | 0.0 | 0.00 | 0.00 | 0.00 | 74 | 1020.2 |
| 20260905032039 | 63 | 245 | 0.0 | 0.0 | 0.00 | 0.00 | 0.00 | 74 | 1020.3 |
| 20260905031544 | 63 | 245 | 0.0 | 0.0 | 0.00 | 0.00 | 0.00 | 75 | 1020.3 |
| 20260905031037 | 63 | 245 | 0.0 | 4.0 | 0.00 | 0.00 | 0.00 | 75 | 1020.3 |
| 20260905030537 | 63 | 292 | 1.0 | 5.0 | 0.00 | 0.00 | 0.00 | 74 | 1020.4 |
| 20260905030038 | 63 | 291 | 1.0 | 6.0 | 0.00 | 0.00 | 0.00 | 73 | 1020.3 |
| 20260905025536 | 64 | 304 | 3.0 | 6.0 | 0.00 | 0.00 | 0.00 | 74 | 1020.3 |
| 20260905025036 | 64 | 157 | 1.0 | 3.0 | 0.00 | 0.00 | 0.00 | 72 | 1020.2 |
| 20260905024545 | 64 | 157 | 0.0 | 3.0 | 0.00 | 0.00 | 0.00 | 72 | 1020.3 |
| 20260905024037 | 64 | 139 | 0.0 | 2.0 | 0.00 | 0.00 | 0.00 | 71 | 1020.2 |
| 20260905023535 | 64 | 139 | 0.0 | 0.0 | 0.00 | 0.00 | 0.00 | 71 | 1020.3 |
| 20260905023035 | 64 | 139 | 0.0 | 0.0 | 0.00 | 0.00 | 0.00 | 72 | 1020.4 |
| 20260905022534 | 64 | 139 | 0.0 | 0.0 | 0.00 | 0.00 | 0.00 | 73 | 1020.4 |
| 20260905022033 | 64 | 139 | 0.0 | 3.0 | 0.00 | 0.00 | 0.00 | 72 | 1020.4 |
| 20260905021533 | 65 | 139 | 0.0 | 3.0 | 0.00 | 0.00 | 0.00 | 72 | 1020.5 |
| 20260905021032 | 65 | 251 | 0.0 | 5.0 | 0.00 | 0.00 | 0.00 | 70 | 1020.4 |
| 20260905020534 | 65 | 251 | 1.0 | 5.0 | 0.00 | 0.00 | 0.00 | 71 | 1020.5 |
| 20260905020034 | 65 | 245 | 0.0 | 2.0 | 0.00 | 0.00 | 0.00 | 71 | 1020.5 |
| 20260905015532 | 65 | 245 | 0.0 | 0.0 | 0.00 | 0.00 | 0.00 | 71 | 1020.6 |
| 20260905015035 | 65 | 245 | 0.0 | 0.0 | 0.00 | 0.00 | 0.00 | 71 | 1020.5 |
| 20260905014532 | 65 | 285 | 0.0 | 0.0 | 0.00 | 0.00 | 0.00 | 71 | 1020.6 |
| 20260905014032 | 65 | 285 | 0.0 | 0.0 | 0.00 | 0.00 | 0.00 | 70 | 1020.7 |
| 20260905013532 | 65 | 285 | 0.0 | 0.0 | 0.00 | 0.00 | 0.00 | 71 | 1020.6 |
| 20260905013031 | 65 | 285 | 0.0 | 4.0 | 0.00 | 0.00 | 0.00 | 70 | 1020.6 |
| 20260905012535 | 65 | 285 | 0.0 | 4.0 | 0.00 | 0.00 | 0.00 | 70 | 1020.5 |
| 20260905012029 | 65 | 138 | 0.0 | 0.0 | 0.00 | 0.00 | 0.00 | 68 | 1020.5 |
| 20260905011529 | 66 | 138 | 0.0 | 0.0 | 0.00 | 0.00 | 0.00 | 69 | 1020.5 |
| 20260905011031 | 66 | 138 | 0.0 | 0.0 | 0.00 | 0.00 | 0.00 | 69 | 1020.5 |
| 20260905010530 | 66 | 138 | 0.0 | 0.0 | 0.00 | 0.00 | 0.00 | 70 | 1020.5 |
| 20260905010037 | 66 | 138 | 0.0 | 0.0 | 0.00 | 0.00 | 0.00 | 68 | 1020.5 |
| 20260905005532 | 65 | 138 | 0.0 | 0.0 | 0.00 | 0.00 | 0.00 | 68 | 1020.5 |
| 20260905005031 | 65 | 138 | 0.0 | 0.0 | 0.00 | 0.00 | 0.00 | 69 | 1020.5 |
| 20260905004529 | 65 | 138 | 0.0 | 0.0 | 0.00 | 0.00 | 0.00 | 70 | 1020.5 |
| 20260905004028 | 65 | 138 | 0.0 | 0.0 | 0.00 | 0.00 | 0.00 | 69 | 1020.5 |
| 20260905003533 | 65 | 138 | 0.0 | 0.0 | 0.00 | 0.00 | 0.00 | 69 | 1020.4 |
| 20260905003028 | 65 | 138 | 0.0 | 0.0 | 0.00 | 0.00 | 0.00 | 70 | 1020.5 |
| 20260905002530 | 65 | 138 | 0.0 | 0.0 | 0.00 | 0.00 | 0.00 | 70 | 1020.3 |
| 20260905002027 | 65 | 139 | 0.0 | 0.0 | 0.00 | 0.00 | 0.00 | 70 | 1020.3 |
| 20260905001527 | 65 | 139 | 0.0 | 2.0 | 0.00 | 0.00 | 0.00 | 69 | 1020.3 |
| 20260905001027 | 65 | 139 | 0.0 | 2.0 | 0.00 | 0.00 | 0.00 | 69 | 1020.3 |
| 20260905000527 | 65 | 139 | 0.0 | 2.0 | 0.00 | 0.00 | 0.00 | 70 | 1020.3 |
| 20260905000033 | 65 | 139 | 0.0 | 3.0 | 0.00 | 0.00 | 0.00 | 71 | 1020.4 |
| 20260904235527 | 66 | 213 | 0.0 | 3.0 | 0.00 | 0.00 | 0.00 | 69 | 1020.4 |
| 20260904235025 | 66 | 293 | 0.0 | 3.0 | 0.00 | 0.00 | 0.00 | 68 | 1020.3 |
| 20260904234525 | 65 | 290 | 0.0 | 0.0 | 0.00 | 0.00 | 0.00 | 69 | 1020.3 |
| 20260904234029 | 65 | 228 | 0.0 | 0.0 | 0.00 | 0.00 | 0.00 | 69 | 1020.2 |
| 20260904233526 | 65 | 228 | 0.0 | 0.0 | 0.00 | 0.00 | 0.00 | 69 | 1020.2 |
| 20260904233026 | 65 | 228 | 0.0 | 0.0 | 0.00 | 0.00 | 0.00 | 71 | 1020.2 |
| 20260904232525 | 65 | 228 | 0.0 | 4.0 | 0.00 | 0.00 | 0.00 | 72 | 1020.1 |
| 20260904232023 | 64 | 288 | 1.0 | 4.0 | 0.00 | 0.00 | 0.00 | 70 | 1020.2 |
| 20260904231523 | 65 | 227 | 0.0 | 0.0 | 0.00 | 0.00 | 0.00 | 71 | 1020.1 |
| 20260904231023 | 65 | 227 | 0.0 | 0.0 | 0.00 | 0.00 | 0.00 | 70 | 1020.1 |
| 20260904230523 | 65 | 227 | 0.0 | 0.0 | 0.00 | 0.00 | 0.00 | 70 | 1020.1 |
| 20260904230020 | 65 | 227 | 0.0 | 0.0 | 0.00 | 0.00 | 0.00 | 71 | 1020.0 |
| 20260904225522 | 65 | 227 | 0.0 | 2.0 | 0.00 | 0.00 | 0.00 | 70 | 1020.0 |
| 20260904225020 | 65 | 227 | 0.0 | 3.0 | 0.00 | 0.00 | 0.00 | 70 | 1020.0 |
| 20260904224521 | 65 | 289 | 0.0 | 3.0 | 0.00 | 0.00 | 0.00 | 70 | 1020.0 |
| 20260904224020 | 65 | 168 | 0.0 | 0.0 | 0.00 | 0.00 | 0.00 | 69 | 1020.1 |
| 20260904223519 | 65 | 168 | 0.0 | 0.0 | 0.00 | 0.00 | 0.00 | 69 | 1020.0 |
| 20260904223020 | 66 | 168 | 0.0 | 0.0 | 0.00 | 0.00 | 0.00 | 68 | 1020.0 |
| 20260904222519 | 66 | 168 | 0.0 | 0.0 | 0.00 | 0.00 | 0.00 | 67 | 1019.9 |
| 20260904222015 | 66 | 167 | 0.0 | 3.0 | 0.00 | 0.00 | 0.00 | 66 | 1019.8 |
| 20260904221515 | 67 | 167 | 0.0 | 6.0 | 0.00 | 0.00 | 0.00 | 66 | 1019.9 |
| 20260904221014 | 67 | 277 | 0.0 | 6.0 | 0.00 | 0.00 | 0.00 | 66 | 1020.0 |
| 20260904220514 | 67 | 148 | 0.0 | 3.0 | 0.00 | 0.00 | 0.00 | 66 | 1020.0 |
| 20260904220012 | 67 | 101 | 0.0 | 4.0 | 0.00 | 0.00 | 0.00 | 66 | 1019.9 |
| 20260904215512 | 67 | 160 | 0.0 | 3.0 | 0.00 | 0.00 | 0.00 | 66 | 1019.9 |
| 20260904215012 | 66 | 170 | 0.0 | 0.0 | 0.00 | 0.00 | 0.00 | 66 | 1019.8 |
| 20260904214512 | 67 | 170 | 0.0 | 0.0 | 0.00 | 0.00 | 0.00 | 67 | 1019.9 |
| 20260904214012 | 67 | 170 | 0.0 | 3.0 | 0.00 | 0.00 | 0.00 | 66 | 1019.9 |
| 20260904213513 | 67 | 170 | 1.0 | 3.0 | 0.00 | 0.00 | 0.00 | 66 | 1019.9 |
| 20260904213012 | 67 | 129 | 0.0 | 2.0 | 0.00 | 0.00 | 0.00 | 66 | 1019.9 |
| 20260904212512 | 67 | 129 | 0.0 | 2.0 | 0.00 | 0.00 | 0.00 | 66 | 1019.8 |
| 20260904212013 | 67 | 129 | 0.0 | 0.0 | 0.00 | 0.00 | 0.00 | 66 | 1019.7 |
| 20260904211514 | 67 | 146 | 0.0 | 0.0 | 0.00 | 0.00 | 0.00 | 66 | 1019.8 |
| 20260904211011 | 68 | 146 | 0.0 | 4.0 | 0.00 | 0.00 | 0.00 | 65 | 1019.7 |
| 20260904210511 | 68 | 146 | 0.0 | 4.0 | 0.00 | 0.00 | 0.00 | 65 | 1019.7 |
| 20260904210016 | 68 | 171 | 1.0 | 4.0 | 0.00 | 0.00 | 0.00 | 65 | 1019.6 |
| 20260904205511 | 68 | 318 | 0.0 | 0.0 | 0.00 | 0.00 | 0.00 | 64 | 1019.6 |
| 20260904205011 | 68 | 318 | 0.0 | 0.0 | 0.00 | 0.00 | 0.00 | 64 | 1019.6 |
| 20260904204510 | 68 | 318 | 0.0 | 3.0 | 0.00 | 0.00 | 0.00 | 64 | 1019.6 |
| 20260904204014 | 68 | 318 | 1.0 | 3.0 | 0.00 | 0.00 | 0.00 | 64 | 1019.6 |
| 20260904203510 | 69 | 141 | 0.0 | 4.0 | 0.00 | 0.00 | 0.00 | 62 | 1019.6 |
| 20260904203010 | 69 | 273 | 1.0 | 4.0 | 0.00 | 0.00 | 0.00 | 61 | 1019.6 |
| 20260904202509 | 69 | 167 | 1.0 | 3.0 | 0.00 | 0.00 | 0.00 | 61 | 1019.5 |
| 20260904202012 | 69 | 167 | 0.0 | 2.0 | 0.00 | 0.00 | 0.00 | 61 | 1019.6 |
| 20260904201509 | 70 | 167 | 0.0 | 3.0 | 0.00 | 0.00 | 0.00 | 61 | 1019.6 |
| 20260904201009 | 70 | 167 | 1.0 | 3.0 | 0.00 | 0.00 | 0.00 | 61 | 1019.6 |
| 20260904200509 | 70 | 167 | 0.0 | 3.0 | 0.00 | 0.00 | 0.00 | 61 | 1019.5 |
| 20260904200009 | 70 | 167 | 0.0 | 2.0 | 0.00 | 0.00 | 0.00 | 61 | 1019.4 |
| 20260904195513 | 70 | 167 | 0.0 | 0.0 | 0.00 | 0.00 | 0.00 | 61 | 1019.4 |
| 20260904195010 | 70 | 167 | 0.0 | 0.0 | 0.00 | 0.00 | 0.00 | 60 | 1019.4 |
| 20260904194510 | 71 | 167 | 0.0 | 0.0 | 0.00 | 0.00 | 0.00 | 59 | 1019.3 |
| 20260904194008 | 71 | 167 | 0.0 | 0.0 | 0.00 | 0.00 | 0.00 | 58 | 1019.4 |
| 20260904193508 | 71 | 167 | 0.0 | 0.0 | 0.00 | 0.00 | 0.00 | 58 | 1019.3 |
| 20260904193008 | 71 | 167 | 0.0 | 0.0 | 0.00 | 0.00 | 0.00 | 59 | 1019.3 |
| 20260904192507 | 71 | 167 | 0.0 | 0.0 | 0.00 | 0.00 | 0.00 | 58 | 1019.3 |
| 20260904192010 | 72 | 167 | 0.0 | 0.0 | 0.00 | 0.00 | 0.00 | 58 | 1019.2 |
| 20260904191507 | 72 | 167 | 0.0 | 0.0 | 0.00 | 0.00 | 0.00 | 57 | 1019.2 |
| 20260904191006 | 72 | 167 | 0.0 | 0.0 | 0.00 | 0.00 | 0.00 | 57 | 1019.0 |
| 20260904190507 | 72 | 167 | 0.0 | 0.0 | 0.00 | 0.00 | 0.00 | 56 | 1019.0 |
| 20260904190006 | 73 | 167 | 0.0 | 0.0 | 0.00 | 0.00 | 0.00 | 56 | 1018.9 |
| 20260904185506 | 73 | 167 | 0.0 | 0.0 | 0.00 | 0.00 | 0.00 | 55 | 1018.8 |
| 20260904185006 | 73 | 167 | 0.0 | 0.0 | 0.00 | 0.00 | 0.00 | 55 | 1018.8 |
| 20260904184506 | 73 | 167 | 0.0 | 3.0 | 0.00 | 0.00 | 0.00 | 55 | 1018.7 |
| 20260904184006 | 74 | 167 | 0.0 | 3.0 | 0.00 | 0.00 | 0.00 | 55 | 1018.7 |
| 20260904183508 | 74 | 167 | 1.0 | 3.0 | 0.00 | 0.00 | 0.00 | 53 | 1018.5 |
| 20260904183006 | 74 | 167 | 0.0 | 4.0 | 0.00 | 0.00 | 0.00 | 53 | 1018.5 |
| 20260904182505 | 75 | 167 | 1.0 | 4.0 | 0.00 | 0.00 | 0.00 | 51 | 1018.3 |
| 20260904182004 | 74 | 198 | 0.0 | 3.0 | 0.00 | 0.00 | 0.00 | 51 | 1018.3 |
| 20260904181504 | 75 | 293 | 0.0 | 0.0 | 0.00 | 0.00 | 0.00 | 53 | 1018.2 |
| 20260904181004 | 76 | 293 | 0.0 | 0.0 | 0.00 | 0.00 | 0.00 | 52 | 1018.2 |
| 20260904180504 | 77 | 293 | 0.0 | 0.0 | 0.00 | 0.00 | 0.00 | 50 | 1018.1 |
| 20260904180004 | 77 | 293 | 0.0 | 0.0 | 0.00 | 0.00 | 0.00 | 47 | 1017.9 |
| 20260904175503 | 78 | 293 | 0.0 | 0.0 | 0.00 | 0.00 | 0.00 | 45 | 1017.8 |
| 20260904175006 | 78 | 293 | 0.0 | 2.0 | 0.00 | 0.00 | 0.00 | 46 | 1017.7 |
| 20260904174503 | 79 | 293 | 0.0 | 2.0 | 0.00 | 0.00 | 0.00 | 44 | 1017.7 |
| 20260904174003 | 79 | 293 | 0.0 | 0.0 | 0.00 | 0.00 | 0.00 | 43 | 1017.6 |
| 20260904173505 | 79 | 293 | 0.0 | 2.0 | 0.00 | 0.00 | 0.00 | 44 | 1017.6 |
| 20260904172532 | 79 | 293 | 0.0 | 4.0 | 0.00 | 0.00 | 0.00 | 43 | 1017.5 |
| 20260904172029 | 79 | 298 | 0.0 | 4.0 | 0.00 | 0.00 | 0.00 | 44 | 1017.5 |
| 20260904171530 | 79 | 293 | 0.0 | 3.0 | 0.00 | 0.00 | 0.00 | 44 | 1017.5 |
| 20260904171029 | 79 | 287 | 0.0 | 2.0 | 0.00 | 0.00 | 0.00 | 44 | 1017.5 |
| 20260904170529 | 80 | 282 | 0.0 | 3.0 | 0.00 | 0.00 | 0.00 | 44 | 1017.4 |
| 20260904170036 | 80 | 309 | 0.0 | 3.0 | 0.00 | 0.00 | 0.00 | 43 | 1017.4 |
| 20260904165531 | 79 | 112 | 1.0 | 4.0 | 0.00 | 0.00 | 0.00 | 44 | 1017.4 |
| 20260904165029 | 79 | 67 | 0.0 | 4.0 | 0.00 | 0.00 | 0.00 | 44 | 1017.4 |
| 20260904164529 | 79 | 250 | 0.0 | 4.0 | 0.00 | 0.00 | 0.00 | 42 | 1017.4 |
| 20260904164027 | 79 | 124 | 0.0 | 3.0 | 0.00 | 0.00 | 0.00 | 41 | 1017.5 |
| 20260904163527 | 80 | 230 | 0.0 | 3.0 | 0.00 | 0.00 | 0.00 | 41 | 1017.5 |
| 20260904163027 | 80 | 241 | 0.0 | 3.0 | 0.00 | 0.00 | 0.00 | 40 | 1017.5 |
| 20260904162527 | 80 | 215 | 0.0 | 3.0 | 0.00 | 0.00 | 0.00 | 40 | 1017.5 |
| 20260904162026 | 80 | 199 | 0.0 | 4.0 | 0.00 | 0.00 | 0.00 | 41 | 1017.5 |
| 20260904161527 | 80 | 263 | 1.0 | 3.0 | 0.00 | 0.00 | 0.00 | 40 | 1017.5 |
| 20260904161030 | 80 | 299 | 0.0 | 4.0 | 0.00 | 0.00 | 0.00 | 40 | 1017.5 |
| 20260904160526 | 80 | 263 | 0.0 | 4.0 | 0.00 | 0.00 | 0.00 | 40 | 1017.5 |
| 20260904160031 | 80 | 238 | 0.0 | 3.0 | 0.00 | 0.00 | 0.00 | 39 | 1017.6 |
| 20260904155525 | 80 | 284 | 0.0 | 4.0 | 0.00 | 0.00 | 0.00 | 40 | 1017.6 |
| 20260904155025 | 81 | 260 | 0.0 | 7.0 | 0.00 | 0.00 | 0.00 | 40 | 1017.7 |
| 20260904154525 | 81 | 135 | 2.0 | 5.0 | 0.00 | 0.00 | 0.00 | 38 | 1017.7 |
| 20260904154025 | 81 | 280 | 0.0 | 6.0 | 0.00 | 0.00 | 0.00 | 39 | 1017.6 |
| 20260904153525 | 82 | 249 | 2.0 | 6.0 | 0.00 | 0.00 | 0.00 | 38 | 1017.7 |
| 20260904153024 | 82 | 290 | 1.0 | 5.0 | 0.00 | 0.00 | 0.00 | 37 | 1017.7 |
| 20260904152522 | 82 | 309 | 0.0 | 5.0 | 0.00 | 0.00 | 0.00 | 35 | 1017.8 |
| 20260904152022 | 83 | 219 | 2.0 | 5.0 | 0.00 | 0.00 | 0.00 | 35 | 1017.9 |
| 20260904151521 | 83 | 282 | 0.0 | 3.0 | 0.00 | 0.00 | 0.00 | 35 | 1017.9 |
| 20260904151021 | 83 | 289 | 0.0 | 3.0 | 0.00 | 0.00 | 0.00 | 35 | 1017.9 |
| 20260904150521 | 83 | 259 | 1.0 | 4.0 | 0.00 | 0.00 | 0.00 | 37 | 1017.9 |
| 20260904150020 | 84 | 219 | 0.0 | 3.0 | 0.00 | 0.00 | 0.00 | 36 | 1017.9 |
| 20260904145520 | 84 | 314 | 0.0 | 2.0 | 0.00 | 0.00 | 0.00 | 34 | 1018.1 |
| 20260904145020 | 85 | 314 | 0.0 | 1.0 | 0.00 | 0.00 | 0.00 | 36 | 1018.1 |
| 20260904144518 | 85 | 314 | 0.0 | 2.0 | 0.00 | 0.00 | 0.00 | 36 | 1018.2 |
| 20260904144018 | 86 | 314 | 0.0 | 2.0 | 0.00 | 0.00 | 0.00 | 35 | 1018.2 |
| 20260904143517 | 86 | 314 | 0.0 | 2.0 | 0.00 | 0.00 | 0.00 | 35 | 1018.3 |
| 20260904143024 | 87 | 314 | 0.0 | 2.0 | 0.00 | 0.00 | 0.00 | 34 | 1018.4 |
| 20260904142517 | 87 | 314 | 0.0 | 1.0 | 0.00 | 0.00 | 0.00 | 34 | 1018.4 |
| 20260904142018 | 86 | 314 | 0.0 | 2.0 | 0.00 | 0.00 | 0.00 | 36 | 1018.5 |
| 20260904141514 | 86 | 314 | 0.0 | 3.0 | 0.00 | 0.00 | 0.00 | 38 | 1018.5 |
| 20260904141012 | 86 | 314 | 1.0 | 3.0 | 0.00 | 0.00 | 0.00 | 37 | 1018.6 |
| 20260904140511 | 85 | 314 | 0.0 | 2.0 | 0.00 | 0.00 | 0.00 | 40 | 1018.7 |
| 20260904140010 | 85 | 314 | 0.0 | 2.0 | 0.00 | 0.00 | 0.00 | 36 | 1018.8 |
| 20260904135512 | 85 | 314 | 0.0 | 2.0 | 0.00 | 0.00 | 0.00 | 38 | 1018.9 |
| 20260904135010 | 85 | 314 | 0.0 | 1.0 | 0.00 | 0.00 | 0.00 | 35 | 1018.9 |
| 20260904134516 | 84 | 314 | 0.0 | 3.0 | 0.00 | 0.00 | 0.00 | 36 | 1019.0 |
| 20260904134009 | 85 | 314 | 2.0 | 3.0 | 0.00 | 0.00 | 0.00 | 38 | 1019.1 |
| 20260904133507 | 85 | 314 | 1.0 | 2.0 | 0.00 | 0.00 | 0.00 | 38 | 1019.3 |
| 20260904133007 | 85 | 314 | 0.0 | 0.0 | 0.00 | 0.00 | 0.00 | 36 | 1019.3 |
| 20260904132505 | 84 | 314 | 0.0 | 0.0 | 0.00 | 0.00 | 0.00 | 36 | 1019.4 |
| 20260904132002 | 84 | 314 | 0.0 | 3.0 | 0.00 | 0.00 | 0.00 | 39 | 1019.5 |
| 20260904131501 | 83 | 314 | 0.0 | 3.0 | 0.00 | 0.00 | 0.00 | 38 | 1019.6 |
| 20260904131000 | 83 | 314 | 1.0 | 3.0 | 0.00 | 0.00 | 0.00 | 38 | 1019.7 |
| 20260904130559 | 83 | 314 | 2.0 | 3.0 | 0.00 | 0.00 | 0.00 | 41 | 1019.8 |
| 20260904130058 | 83 | 314 | 0.0 | 0.0 | 0.00 | 0.00 | 0.00 | 41 | 1019.8 |
| 20260904125557 | 83 | 314 | 0.0 | 0.0 | 0.00 | 0.00 | 0.00 | 42 | 1020.0 |
| 20260904125056 | 82 | 314 | 0.0 | 0.0 | 0.00 | 0.00 | 0.00 | 41 | 1020.0 |
| 20260904124603 | 82 | 314 | 0.0 | 0.0 | 0.00 | 0.00 | 0.00 | 43 | 1020.2 |
| 20260904124055 | 82 | 314 | 0.0 | 2.0 | 0.00 | 0.00 | 0.00 | 44 | 1020.3 |
| 20260904123555 | 82 | 314 | 0.0 | 2.0 | 0.00 | 0.00 | 0.00 | 43 | 1020.4 |
| 20260904123059 | 82 | 314 | 0.0 | 2.0 | 0.00 | 0.00 | 0.00 | 43 | 1020.5 |
| 20260904122553 | 82 | 314 | 0.0 | 2.0 | 0.00 | 0.00 | 0.00 | 45 | 1020.6 |
| 20260904122051 | 82 | 314 | 1.0 | 2.0 | 0.00 | 0.00 | 0.00 | 41 | 1020.7 |
| 20260904121553 | 81 | 314 | 0.0 | 2.0 | 0.00 | 0.00 | 0.00 | 40 | 1020.7 |
| 20260904121048 | 81 | 314 | 0.0 | 2.0 | 0.00 | 0.00 | 0.00 | 43 | 1020.9 |
| 20260904120548 | 81 | 314 | 0.0 | 3.0 | 0.00 | 0.00 | 0.00 | 44 | 1020.9 |
| 20260904120050 | 80 | 314 | 1.0 | 3.0 | 0.00 | 0.00 | 0.00 | 42 | 1021.0 |
| 20260904115548 | 80 | 314 | 1.0 | 3.0 | 0.00 | 0.00 | 0.00 | 43 | 1021.1 |
| 20260904115044 | 79 | 314 | 0.0 | 2.0 | 0.00 | 0.00 | 0.00 | 45 | 1021.2 |
| 20260904114544 | 79 | 314 | 0.0 | 2.0 | 0.00 | 0.00 | 0.00 | 44 | 1021.2 |
| 20260904114042 | 79 | 314 | 0.0 | 4.0 | 0.00 | 0.00 | 0.00 | 46 | 1021.3 |
| 20260904113540 | 79 | 318 | 0.0 | 4.0 | 0.00 | 0.00 | 0.00 | 45 | 1021.5 |
| 20260904113040 | 78 | 318 | 1.0 | 2.0 | 0.00 | 0.00 | 0.00 | 47 | 1021.6 |
| 20260904112537 | 78 | 318 | 0.0 | 3.0 | 0.00 | 0.00 | 0.00 | 47 | 1021.7 |
| 20260904112039 | 78 | 318 | 1.0 | 4.0 | 0.00 | 0.00 | 0.00 | 47 | 1021.8 |
| 20260904111540 | 77 | 318 | 2.0 | 4.0 | 0.00 | 0.00 | 0.00 | 49 | 1021.9 |
| 20260904111034 | 77 | 73 | 0.0 | 1.0 | 0.00 | 0.00 | 0.00 | 47 | 1022.0 |
| 20260904110533 | 77 | 73 | 0.0 | 1.0 | 0.00 | 0.00 | 0.00 | 48 | 1022.0 |
| 20260904110032 | 77 | 75 | 0.0 | 1.0 | 0.00 | 0.00 | 0.00 | 48 | 1022.2 |
| 20260904105532 | 77 | 75 | 0.0 | 4.0 | 0.00 | 0.00 | 0.00 | 51 | 1022.3 |
| 20260904105030 | 76 | 75 | 0.0 | 5.0 | 0.00 | 0.00 | 0.00 | 51 | 1022.5 |
| 20260904104527 | 76 | 324 | 2.0 | 5.0 | 0.00 | 0.00 | 0.00 | 51 | 1022.6 |
| 20260904104028 | 76 | 346 | 0.0 | 3.0 | 0.00 | 0.00 | 0.00 | 51 | 1022.6 |
| 20260904103529 | 76 | 359 | 0.0 | 3.0 | 0.00 | 0.00 | 0.00 | 49 | 1022.7 |
| 20260904103025 | 76 | 7 | 1.0 | 2.0 | 0.00 | 0.00 | 0.00 | 51 | 1022.8 |
| 20260904102525 | 75 | 16 | 0.0 | 4.0 | 0.00 | 0.00 | 0.00 | 48 | 1023.0 |
| 20260904102022 | 75 | 4 | 0.0 | 4.0 | 0.00 | 0.00 | 0.00 | 52 | 1023.0 |
| 20260904101521 | 75 | 82 | 0.0 | 3.0 | 0.00 | 0.00 | 0.00 | 51 | 1023.2 |
| 20260904101024 | 74 | 304 | 0.0 | 4.0 | 0.00 | 0.00 | 0.00 | 56 | 1023.2 |
| 20260904100520 | 74 | 304 | 2.0 | 4.0 | 0.00 | 0.00 | 0.00 | 53 | 1023.3 |
| 20260904100017 | 74 | 304 | 2.0 | 4.0 | 0.00 | 0.00 | 0.00 | 52 | 1023.4 |
| 20260904095521 | 73 | 304 | 0.0 | 4.0 | 0.00 | 0.00 | 0.00 | 49 | 1023.5 |